Fort Rucker / Ozark, AL

8:04 PM CDT on May 23, 2017 (GMT -0500)
Fort Rucker / Ozark

Weather History for KLOR - April, 2013

Change the Weather History Date:

Monday, April 8, 2013

  Actual Average (KOZR) Record (KOZR)
Temperature  
Mean Temperature 65 °F -  
Max Temperature 82 °F 73 °F 89 °F (2015)
Min Temperature 48 °F 51 °F 34 °F (2009)
Growing Degree Days 15 (Base 50)    
Moisture  
Dew Point 53 °F    
Average Humidity 75    
Maximum Humidity 100    
Minimum Humidity 37    
Precipitation  
Precipitation 0.00 in - - ()
Sea Level Pressure  
Sea Level Pressure 30.07 in    
Wind  
Wind Speed 2 mph (SSW)    
Max Wind Speed 14 mph    
Max Gust Speed 17 mph    
Visibility 7 miles    
Events      
Averages and records for this station are not official NWS values.
T = Trace of Precipitation, MM = Missing Value Source: NWS Daily Summary

Daily Weather History Graph

Daily Weather History Graph

Search for Another Location

Airport or City:

Trip Planner

Search our weather history database for the weather conditions in past years. The results will help you decide how hot, cold, wet, or windy it might be!

Date:

Astronomy

Apr. 08, 2013 Rise Set
Actual Time 6:22 AM CDT 7:07 PM CDT
Civil Twilight 5:58 AM CDT 7:31 PM CDT
Nautical Twilight 5:29 AM CDT 8:00 PM CDT
Astronomical Twilight 4:59 AM CDT 8:30 PM CDT
Moon 5:06 AM CDT (4/8) 5:44 PM CDT (4/8)
Length of Visible Light 13h 33m
Length of Day
12h 44m
Waning Crescent, 3% of the Moon is Illuminated
Apr 8
Waning Crescent
Apr 10
New
Apr 18
First Quarter
Apr 25
Full
May 2
Last Quarter

Hourly Weather History & Observations

Time (CDT) Temp. Heat Index Dew Point Humidity Pressure Visibility Wind Dir Wind Speed Gust Speed Precip Events Conditions
12:53 AM 55.9 °F - 54.0 °F 93% 30.06 in 10.0 mi Calm Calm - N/A   Clear
1:53 AM 53.1 °F - 51.1 °F 93% 30.05 in 6.0 mi Calm Calm - N/A   Clear
2:53 AM 53.1 °F - 51.1 °F 93% 30.04 in 6.0 mi Calm Calm - N/A   Clear
3:15 AM 53.6 °F - 51.8 °F 94% 30.04 in 1.0 mi Calm Calm - N/A   Mist
3:24 AM 51.8 °F - 50.0 °F 94% 30.04 in 2.0 mi Calm Calm - N/A   Partly Cloudy
3:31 AM 51.8 °F - 50.0 °F 94% 30.04 in 4.0 mi Calm Calm - N/A   Partly Cloudy
3:53 AM 51.1 °F - 48.9 °F 92% 30.04 in 6.0 mi Calm Calm - N/A   Clear
4:22 AM 50.0 °F - 48.2 °F 94% 30.05 in 1.0 mi Calm Calm - N/A   Mist
4:29 AM 50.0 °F - 48.2 °F 94% 30.05 in 2.0 mi Calm Calm - N/A   Partly Cloudy
4:36 AM 51.8 °F - 48.2 °F 88% 30.05 in 7.0 mi Calm Calm - N/A   Partly Cloudy
4:53 AM 51.1 °F - 48.9 °F 92% 30.05 in 8.0 mi Calm Calm - N/A   Clear
5:53 AM 48.9 °F - 46.9 °F 93% 30.07 in 8.0 mi Calm Calm - N/A   Clear
6:17 AM 51.8 °F - 51.8 °F 100% 30.08 in 1.8 mi Calm Calm - N/A   Clear
6:21 AM 53.6 °F - 51.8 °F 94% 30.08 in 1.0 mi Calm Calm - N/A   Mist
6:34 AM 50.0 °F - 48.2 °F 94% 30.08 in 2.5 mi Calm Calm - N/A   Clear
6:41 AM 51.8 °F - 48.2 °F 88% 30.08 in 5.0 mi Calm Calm - N/A   Clear
6:50 AM 51.8 °F - 48.2 °F 88% 30.08 in 2.0 mi Calm Calm - N/A   Clear
6:53 AM 50.0 °F - 48.9 °F 96% 30.08 in 3.0 mi Calm Calm - N/A   Clear
7:53 AM 60.1 °F - 57.0 °F 90% 30.09 in 10.0 mi Calm Calm - N/A   Clear
8:53 AM 66.0 °F - 57.0 °F 73% 30.10 in 10.0 mi Variable 3.5 mph - N/A   Clear
9:53 AM 71.1 °F - 57.0 °F 61% 30.11 in 10.0 mi SSE 5.8 mph - N/A   Clear
10:53 AM 75.0 °F - 54.0 °F 48% 30.12 in 10.0 mi Variable 4.6 mph - N/A   Clear
11:53 AM 77.0 °F - 55.0 °F 47% 30.12 in 10.0 mi SSW 10.4 mph 17.3 mph N/A   Mostly Cloudy
12:53 PM 80.1 °F 80.2 °F 55.9 °F 43% 30.09 in 10.0 mi SSW 11.5 mph 16.1 mph N/A   Scattered Clouds
1:53 PM 80.1 °F 80.1 °F 55.0 °F 42% 30.08 in 10.0 mi SW 10.4 mph 17.3 mph N/A   Mostly Cloudy
2:53 PM 80.1 °F 80.0 °F 54.0 °F 40% 30.05 in 10.0 mi South 13.8 mph 17.3 mph N/A   Mostly Cloudy
3:53 PM 82.9 °F 81.9 °F 54.0 °F 37% 30.04 in 10.0 mi SW 9.2 mph - N/A   Mostly Cloudy
4:53 PM 81.0 °F 80.4 °F 53.1 °F 38% 30.03 in 10.0 mi SSW 9.2 mph - N/A   Mostly Cloudy
5:53 PM 79.0 °F - 55.0 °F 44% 30.03 in 10.0 mi SSE 3.5 mph - N/A   Scattered Clouds
6:53 PM 77.0 °F - 57.0 °F 50% 30.04 in 10.0 mi South 5.8 mph - N/A   Clear
7:53 PM 73.9 °F - 55.9 °F 53% 30.06 in 10.0 mi SSW 5.8 mph - N/A   Clear
8:53 PM 70.0 °F - 57.9 °F 65% 30.07 in 10.0 mi Variable 3.5 mph - N/A   Clear
9:53 PM 68.0 °F - 57.9 °F 70% 30.09 in 10.0 mi South 3.5 mph - N/A   Clear
10:53 PM 64.9 °F - 57.9 °F 78% 30.09 in 10.0 mi Calm Calm - N/A   Clear
11:53 PM 61.0 °F - 57.0 °F 87% 30.08 in 10.0 mi Calm Calm - N/A   Clear